Home   Weather   Gerasdorf bei Wien   Past weeks

Flag for Austria Past Weather in Gerasdorf bei Wien, Lower Austria, Austria — Yesterday and Last 2 Weeks

Now
40 °F

Scattered clouds.


Feels Like: 36 °F
Forecast: 30 / 48 °F
Wind: 6 mph from Northwest

Location: Wien / Hohe Warte

Current Time: Feb 25, 2017 at 10:31:49 am

Latest Report: Feb 25, 2017 at 9:00 am


Visibility: 31 mi

Pressure: 30.24 "Hg

Humidity: 54%

Dew Point: 25 °F

Location of Gerasdorf bei WienLocation

Past Weather in Gerasdorf bei Wien — Graph

°F

Gerasdorf bei Wien Temperature Yesterday

Maximum temperature yesterday: 60 °F (at 2:00 am)
Minimum temperature yesterday: 40 °F (at 11:00 pm)
Average temperature yesterday: 49 °F

High & Low Weather Summary for the Past Weeks

 TemperatureHumidityPressure
High66 °F (Feb 23, 3:00 pm)98% (Feb 17, 6:00 am)30.64 "Hg (Feb 17, 6:00 am)
Low27 °F (Feb 14, 7:00 am)28% (Feb 23, 3:00 pm)29.47 "Hg (Feb 23, 8:00 pm)
Average40 °F76%30.23 "Hg
* Reported Feb 10 9:00 am — Feb 25 9:00 am, Gerasdorf bei Wien, Weather by CustomWeather, © 2017

Note: Actual official high and low records may vary slightly from our data, if they occured in-between our weather recording intervals... More about our weather records

Advertising

Gerasdorf bei Wien Weather History for the Previous 24 Hours

Scroll right to see more
 ConditionsComfort  
Time TempWeatherWind HumidityBarometerVisibility
9:00 am
Sat, Feb 25
40 °FScattered clouds.6 mph54%30.24 "Hg31 mi
8:00 am36 °FPassing clouds.6 mph68%30.22 "Hg31 mi
7:00 am34 °FScattered clouds.5 mph73%30.21 "Hg34 mi
6:00 am34 °FPassing clouds.5 mph68%30.19 "Hg28 mi
5:00 am35 °FChilly.5 mph62%30.17 "HgN/A
4:00 am35 °FChilly.6 mph63%30.15 "HgN/A
3:00 am36 °FChilly.6 mph64%30.14 "HgN/A
2:00 am37 °FChilly.6 mph64%30.13 "HgN/A
1:00 am38 °FPassing clouds.5 mph64%30.11 "Hg25 mi
12:00 am39 °FChilly.6 mph57%30.09 "HgN/A
11:00 pm
Fri, Feb 24
40 °FChilly.6 mph59%30.06 "HgN/A
10:00 pm42 °FOvercast.6 mph57%30.03 "Hg25 mi
9:00 pm42 °FOvercast.6 mph55%29.99 "Hg25 mi
8:00 pm43 °FOvercast.6 mph54%29.94 "Hg25 mi
7:00 pm44 °FPassing clouds.5 mph53%29.90 "Hg31 mi
6:00 pm46 °FOvercast.7 mph51%29.85 "Hg31 mi
5:00 pm48 °FCool.7 mph44%29.80 "HgN/A
4:00 pm49 °FOvercast.6 mph40%29.78 "Hg37 mi
3:00 pm50 °FCool.10 mph37%29.76 "HgN/A
2:00 pm52 °FCool.9 mph39%29.75 "HgN/A
1:00 pm52 °FOvercast.9 mph37%29.75 "Hg37 mi
12:00 pm50 °FOvercast.8 mph43%29.75 "Hg37 mi
11:00 am49 °FOvercast.8 mph52%29.74 "Hg37 mi
10:00 am47 °FOvercast.9 mph61%29.72 "Hg37 mi
Weather by CustomWeather, © 2017

See weather overviewHow to use our weather pages